Погода в Нуланбее

Австралия     12°11′29″S   136°46′27″E
темп.,
°C
ветер,
м/с
пор.,
м/с
влажн.,
%
обл.,
%
осадки,
мм/ч
давл.,
гПа
погр.,
м
12 мая, ср
ср1200:30+26юв5876100 0.0 1011657
03:30+26юв587920 0.0 1010549
06:30+26юв587828 0.1 1011648
09:30+28юв797023 0.9 10131052
12:30+29юв796322 0.4 10101382
15:30+29юв896418 0.5 10091308
18:30+27юв710706 0.0 10101006
21:30+27юв697287 0.0 1011880
13 мая, чт
чт1300:30+26юв697362 0.0 1010701
03:30+26юв5972100 0.0 1009619
06:30+26юв586999 0.0 1011611
09:30+29юв686033 0.0 10121147
12:30+30юв78575 0.0 10101253
15:30+29юв78605 0.0 10081236
18:30+27ююв696725 0.0 1009851
21:30+27ююв69710 0.0 1011817
14 мая, пт
пт1400:30+26ююв69735 0.0 1010714
03:30+26ююв69725 0.0 1009666
06:30+26юв696810 0.0 1010692
09:30+29юв79574 0.0 10111138
12:30+29юв78570 0.0 10091251
15:30+29юв78600 0.0 10081244
18:30+27юв69683 0.0 1009761
21:30+27юв69716 0.0 1011841
15 мая, сб
сб1500:30+26юв69730 0.0 1009678
03:30+26ююв58770 0.0 1008546
06:30+26юв58755 0.0 1009560
09:30+29юв796626 0.1 10111263
12:30+29юв786224 0.1 10091291
15:30+29ююв786518 0.2 10081227
18:30+27юв69705 0.0 1009789
21:30+27юв69746 0.0 1010806
16 мая, вс
вс1600:30+26юв69775 0.0 1009699
03:30+26юв5977100 0.0 1008638
06:30+27юв6974100 0.0 1009862
09:30+28юв71071100 0.8 10111142
12:30+29юв81063100 0.1 10091368
15:30+29юв7867100 0.3 10081227
18:30+27юв5877100 0.2 1010748
21:30+27юв69750 0.2 1011853